Orbital Elements at Epoch 2459000.5 (2020-May-31.0) TDB
Reference: JPL 18 (heliocentric ecliptic J2000)
Element | Value | Uncertainty (1-sigma) | Units |
e | .1619819054299554 | 3.8509e-08 | |
a | 2.670013644717203 | 1.4073e-08 | au |
q | 2.23751974702193 | 1.0692e-07 | au |
i | 10.12613851294638 | 4.3671e-06 | deg |
node | 30.1729011076425 | 2.5375e-05 | deg |
peri | 9.227807456783292 | 2.9985e-05 | deg |
M | 261.210007699717 | 1.7552e-05 | deg |
tp | 2459437.799618874780 (2021-Aug-11.29961887) | 7.9874e-05 | TDB |
period | 1593.560836773847 4.36 | 1.2599e-05 3.449e-08 | d yr |
n | .2259091662473443 | 1.7861e-09 | deg/d |
Q | 3.102507542412475 | 1.6353e-08 | au |
|
| | Orbit Determination Parameters
Additional Information
|